N67748 CYKF-CYXU

Flight info

Callsign N67748
Flight time 0h 38m
Altitude
Route
Aircraft H125

Departure

Time 2026-05-07 23:22
Airport Region of Waterloo International Airport (CYKF)

Arrival

Time 2026-05-08 00:00
Airport London International Airport (CYXU)
Time Latitude Longitude Altitude Speed Heading
2026-05-07 23:18 43.45455 -80.38237 1029 ft 0 kts 220°
2026-05-07 23:21 43.45453 -80.38219 1030 ft 4 kts 191°
2026-05-07 23:21 43.45398 -80.38146 1115 ft 27 kts 161°
2026-05-07 23:21 43.45045 -80.37857 1219 ft 88 kts 153°
2026-05-07 23:22 43.44516 -80.37318 1579 ft 101 kts 144°
2026-05-07 23:22 43.43789 -80.37260 1663 ft 116 kts 208°
2026-05-07 23:22 43.43265 -80.38150 1645 ft 121 kts 232°
2026-05-07 23:22 43.42636 -80.39013 1576 ft 137 kts 231°
2026-05-07 23:23 43.42043 -80.40047 1154 ft 107 kts 230°
2026-05-07 23:23 43.41659 -80.40459 1091 ft 42 kts 206°
2026-05-07 23:23 43.41491 -80.40569 1013 ft 7 kts 122°
2026-05-07 23:23 43.41482 -80.40572 1014 ft 0 kts 276°
2026-05-07 23:25 43.41482 -80.40574 1021 ft 2 kts 261°
2026-05-07 23:25 43.41436 -80.40577 1186 ft 19 kts 206°
2026-05-07 23:25 43.41394 -80.40880 1671 ft 60 kts 264°
2026-05-07 23:26 43.41287 -80.41693 1747 ft 99 kts 259°
2026-05-07 23:26 43.41074 -80.42600 1728 ft 104 kts 246°
2026-05-07 23:26 43.40757 -80.43236 1809 ft 64 kts 224°
2026-05-07 23:26 43.40600 -80.43278 1780 ft 54 kts 105°
2026-05-07 23:27 43.45455 -80.38237 1031 ft 0 kts 220°
2026-05-07 23:30 43.45450 -80.38247 1053 ft 5 kts 224°
2026-05-07 23:30 43.45392 -80.38426 1633 ft 37 kts 227°
2026-05-07 23:31 43.45148 -80.39047 1733 ft 112 kts 241°
2026-05-07 23:31 43.44876 -80.40148 1612 ft 127 kts 248°
2026-05-07 23:31 43.44566 -80.41252 1617 ft 124 kts 240°
2026-05-07 23:31 43.44094 -80.42210 1718 ft 109 kts 227°
2026-05-07 23:32 43.43638 -80.43048 1748 ft 100 kts 234°
2026-05-07 23:32 43.43424 -80.43530 2524 ft 56 kts 259°
2026-05-07 23:32 43.43169 -80.44106 2960 ft 78 kts 240°
2026-05-07 23:32 43.42735 -80.44713 3224 ft 103 kts 221°
2026-05-07 23:33 43.42344 -80.45338 3288 ft 109 kts 230°
2026-05-07 23:33 43.41874 -80.46320 2822 ft 139 kts 227°
2026-05-07 23:33 43.41279 -80.47435 2274 ft 143 kts 222°
2026-05-07 23:33 43.40650 -80.48425 1973 ft 137 kts 220°
2026-05-07 23:34 43.40031 -80.49395 1695 ft 134 kts 221°
2026-05-07 23:34 43.39391 -80.50298 1512 ft 130 kts 216°
2026-05-07 23:34 43.38779 -80.51043 1415 ft 87 kts 207°
2026-05-07 23:34 43.38473 -80.51411 1374 ft 39 kts 218°
2026-05-07 23:35 43.38359 -80.51617 1278 ft 18 kts 187°
2026-05-07 23:35 43.38328 -80.51697 1204 ft 0 kts 188°
2026-05-07 23:35 43.38279 -80.51814 1545 ft 42 kts 353°
2026-05-07 23:35 43.38401 -80.52321 1786 ft 78 kts 242°
2026-05-07 23:36 43.38283 -80.52872 1763 ft 106 kts 246°
2026-05-07 23:36 43.37911 -80.53867 1590 ft 127 kts 226°
2026-05-07 23:36 43.37379 -80.54844 1624 ft 120 kts 206°
2026-05-07 23:36 43.36804 -80.55305 1772 ft 87 kts 196°
2026-05-07 23:37 43.36430 -80.55572 1660 ft 13 kts 199°
2026-05-07 23:37 43.36402 -80.55696 1544 ft 21 kts 206°
2026-05-07 23:37 43.36284 -80.55801 1412 ft 30 kts 150°
2026-05-07 23:37 43.36210 -80.55479 1176 ft 33 kts 74°
2026-05-07 23:38 43.36214 -80.55365 1153 ft 13 kts 303°
2026-05-07 23:38 43.36249 -80.55470 1198 ft 10 kts 272°
2026-05-07 23:38 43.36204 -80.55799 1733 ft 71 kts 257°
2026-05-07 23:38 43.35831 -80.56420 1714 ft 110 kts 225°
2026-05-07 23:39 43.35717 -80.56613 1684 ft 116 kts 227°
2026-05-07 23:39 43.35165 -80.57481 1469 ft 131 kts 219°
2026-05-07 23:39 43.34513 -80.58320 1382 ft 126 kts 214°
2026-05-07 23:39 43.33929 -80.59191 1297 ft 125 kts 239°
2026-05-07 23:40 43.33681 -80.60177 1588 ft 109 kts 246°
2026-05-07 23:40 43.33289 -80.61110 1619 ft 115 kts 224°
2026-05-07 23:40 43.32746 -80.61925 1462 ft 108 kts 215°
2026-05-07 23:40 43.32318 -80.62483 1187 ft 77 kts 215°
2026-05-07 23:41 43.31981 -80.62830 1244 ft 10 kts 10°
2026-05-07 23:41 43.31919 -80.62805 1113 ft 11 kts 37°
2026-05-07 23:41 43.31874 -80.62729 1023 ft 10 kts 40°
2026-05-07 23:41 43.31950 -80.62791 1091 ft 63 kts 322°
2026-05-07 23:42 43.32188 -80.63311 1676 ft 74 kts 277°
2026-05-07 23:42 43.31977 -80.64056 1863 ft 105 kts 227°
2026-05-07 23:42 43.31507 -80.64890 1641 ft 128 kts 224°
2026-05-07 23:43 43.31382 -80.65117 1678 ft 121 kts 230°
2026-05-07 23:43 43.30943 -80.66037 1682 ft 113 kts 226°
2026-05-07 23:43 43.30442 -80.66929 1583 ft 122 kts 223°
2026-05-07 23:43 43.30312 -80.67135 1553 ft 124 kts 221°
2026-05-07 23:44 43.29768 -80.68006 1557 ft 121 kts 223°
2026-05-07 23:44 43.29311 -80.68956 1421 ft 123 kts 233°
2026-05-07 23:44 43.28854 -80.69893 1429 ft 108 kts 226°
2026-05-07 23:44 43.28423 -80.70634 1450 ft 94 kts 223°
2026-05-07 23:45 43.27975 -80.71291 1467 ft 96 kts 222°
2026-05-07 23:45 43.27446 -80.71953 1529 ft 111 kts 215°
2026-05-07 23:45 43.27365 -80.72047 1530 ft 112 kts 216°
2026-05-07 23:45 43.26837 -80.72743 1508 ft 118 kts 218°
2026-05-07 23:46 43.26257 -80.73531 1499 ft 118 kts 220°
2026-05-07 23:46 43.25664 -80.74342 1415 ft 121 kts 217°
2026-05-07 23:46 43.25523 -80.74515 1418 ft 120 kts 216°
2026-05-07 23:47 43.25006 -80.75002 1494 ft 113 kts 201°
2026-05-07 23:47 43.24271 -80.75490 1414 ft 123 kts 202°
2026-05-07 23:47 43.23495 -80.76077 1308 ft 127 kts 201°
2026-05-07 23:47 43.22741 -80.76661 1377 ft 114 kts 204°
2026-05-07 23:48 43.22187 -80.77199 1906 ft 91 kts 222°
2026-05-07 23:48 43.21771 -80.77874 2280 ft 94 kts 231°
2026-05-07 23:48 43.21355 -80.78618 2474 ft 110 kts 228°
2026-05-07 23:48 43.20848 -80.79521 2280 ft 130 kts 226°
2026-05-07 23:49 43.20281 -80.80514 2086 ft 129 kts 225°
2026-05-07 23:49 43.19699 -80.81462 1890 ft 124 kts 231°
2026-05-07 23:49 43.19246 -80.82403 1870 ft 125 kts 228°
2026-05-07 23:49 43.18620 -80.83288 1674 ft 121 kts 217°
2026-05-07 23:50 43.17981 -80.83908 1727 ft 117 kts 208°
2026-05-07 23:50 43.17826 -80.84058 1750 ft 114 kts 210°
2026-05-07 23:50 43.17700 -80.84189 1822 ft 103 kts 216°
2026-05-07 23:51 43.17253 -80.84703 1836 ft 116 kts 220°
2026-05-07 23:51 43.16628 -80.85529 1483 ft 133 kts 216°
2026-05-07 23:51 43.16004 -80.86307 1680 ft 106 kts 223°
2026-05-07 23:51 43.15420 -80.87118 1372 ft 125 kts 219°
2026-05-07 23:52 43.15235 -80.87353 1365 ft 123 kts 218°
2026-05-07 23:52 43.14562 -80.88041 1360 ft 119 kts 207°
2026-05-07 23:52 43.13846 -80.88615 1360 ft 117 kts 204°
2026-05-07 23:52 43.13258 -80.89341 1357 ft 121 kts 233°
2026-05-07 23:53 43.12986 -80.90270 1708 ft 96 kts 245°
2026-05-07 23:53 43.12556 -80.91115 1689 ft 115 kts 227°
2026-05-07 23:53 43.11915 -80.91860 1584 ft 121 kts 208°
2026-05-07 23:53 43.11208 -80.92503 1533 ft 120 kts 208°
2026-05-07 23:54 43.10554 -80.93095 1695 ft 111 kts 201°
2026-05-07 23:54 43.10218 -80.93396 1863 ft 102 kts 213°
2026-05-07 23:54 43.09847 -80.94299 1855 ft 115 kts 243°
2026-05-07 23:54 43.09513 -80.95306 1817 ft 116 kts 236°
2026-05-07 23:55 43.09032 -80.96186 1857 ft 112 kts 220°
2026-05-07 23:55 43.08438 -80.96882 1939 ft 112 kts 214°
2026-05-07 23:55 43.07795 -80.97567 1805 ft 125 kts 215°
2026-05-07 23:55 43.07148 -80.98365 1719 ft 123 kts 216°
2026-05-07 23:56 43.06495 -80.99117 1676 ft 121 kts 212°
2026-05-07 23:56 43.05844 -80.99894 1480 ft 126 kts 227°
2026-05-07 23:56 43.05935 -81.01006 1403 ft 115 kts 284°
2026-05-07 23:56 43.05916 -81.01949 1709 ft 98 kts 239°
2026-05-07 23:57 43.05399 -81.02739 1550 ft 122 kts 219°
2026-05-07 23:57 43.04811 -81.03522 1591 ft 114 kts 226°
2026-05-07 23:57 43.04499 -81.04212 1747 ft 92 kts 244°
2026-05-07 23:57 43.04238 -81.04924 2182 ft 92 kts 244°
2026-05-07 23:58 43.03926 -81.05921 1817 ft 127 kts 235°
2026-05-07 23:58 43.03654 -81.07106 1586 ft 127 kts 246°
2026-05-07 23:58 43.03336 -81.08199 1476 ft 124 kts 238°
2026-05-07 23:58 43.03186 -81.09055 1513 ft 86 kts 248°
2026-05-07 23:59 43.02945 -81.09816 1334 ft 93 kts 236°
2026-05-07 23:59 43.02682 -81.10583 1350 ft 91 kts 239°
2026-05-07 23:59 43.02381 -81.11374 1260 ft 97 kts 234°
2026-05-07 23:59 43.02120 -81.12135 1337 ft 70 kts 242°
2026-05-08 00:00 43.01967 -81.12737 1297 ft 58 kts 248°
2026-05-08 00:00 43.02055 -81.13234 1095 ft 61 kts 309°
2026-05-08 00:00 43.02340 -81.13677 957 ft 51 kts 308°
2026-05-08 00:00 43.02544 -81.13916 945 ft 40 kts 311°
2026-05-08 00:01 43.02673 -81.14045 934 ft 11 kts 316°
2026-05-08 00:01 43.02822 -81.14249 936 ft 47 kts 307°
2026-05-08 00:01 43.02842 -81.14604 939 ft 35 kts 255°
2026-05-08 00:01 43.02770 -81.14721 916 ft 2 kts 73°
2026-05-08 00:02 43.02762 -81.14713 902 ft 0 kts 60°
2026-05-08 00:03 43.02763 -81.14713 902 ft 0 kts 60°
2026-05-08 00:08 43.02763 -81.14712 904 ft 2 kts 68°
2026-05-08 00:09 43.02786 -81.14595 925 ft 31 kts 16°
2026-05-08 00:09 43.02519 -81.14281 921 ft 72 kts 140°
2026-05-08 00:09 43.02280 -81.14007 947 ft 11 kts 321°